Kekaha, HI

12:42 PM HST on February 07, 2016 (GMT -1000)
Barking Sands PMRF

Weather History for PHBK - October, 2013

Change the Weather History Date:

Wednesday, October 30, 2013

  Actual Average Record
Temperature  
Mean Temperature 78 °F -  
Max Temperature 84 °F 85 °F 89 °F (1968)
Min Temperature 71 °F 66 °F 62 °F (1950)
Cooling Degree Days 12    
Growing Degree Days 28 (Base 50)    
Moisture  
Dew Point 68 °F    
Average Humidity 74    
Maximum Humidity 85    
Minimum Humidity 65    
Precipitation  
Precipitation 0.00 in - - ()
Sea Level Pressure  
Sea Level Pressure 30.06 in    
Wind  
Wind Speed 5 mph (NNE)    
Max Wind Speed 15 mph    
Max Gust Speed -    
Visibility 10 miles    
Events      
Averages and records for this station are not official NWS values.
T = Trace of Precipitation, MM = Missing Value Source: NWS Daily Summary

Daily Weather History Graph

Daily Weather History Graph

Search for Another Location

Airport or City:

Trip Planner

Search our weather history database for the weather conditions in past years. The results will help you decide how hot, cold, wet, or windy it might be!

Date:

Astronomy

Oct. 30, 2013 Rise Set
Actual Time 6:42 AM HST 6:02 PM HST
Civil Twilight 6:19 AM HST 6:25 PM HST
Nautical Twilight 5:52 AM HST 6:52 PM HST
Astronomical Twilight 5:26 AM HST 7:18 PM HST
Moon 3:09 AM HST (10/30) 3:31 PM HST (10/30)
Length of Visible Light 12h 06m
Length of Day
11h 20m
Waning Crescent, 15% of the Moon is Illuminated
Oct 30
Waning Crescent
Nov 3
New
Nov 9
First Quarter
Nov 17
Full
Nov 25
Last Quarter

Hourly Weather History & Observations

Time (HST) Temp. Heat Index Dew Point Humidity Pressure Visibility Wind Dir Wind Speed Gust Speed Precip Events Conditions
12:56 AM 73.0 °F - 64.9 °F 76% 30.05 in 10.0 mi East 3.5 mph - N/A   Clear
1:56 AM 72.0 °F - 64.0 °F 76% 30.04 in 10.0 mi ESE 3.5 mph - N/A   Clear
2:56 AM 71.1 °F - 64.9 °F 81% 30.04 in 10.0 mi East 3.5 mph - N/A   Clear
3:56 AM 72.0 °F - 64.9 °F 78% 30.03 in 10.0 mi East 3.5 mph - N/A   Partly Cloudy
4:56 AM 71.1 °F - 64.9 °F 81% 30.03 in 10.0 mi East 3.5 mph - N/A   Clear
5:56 AM 71.1 °F - 66.0 °F 84% 30.04 in 10.0 mi East 3.5 mph - N/A   Clear
6:56 AM 71.1 °F - 64.0 °F 78% 30.06 in 10.0 mi East 3.5 mph - N/A   Clear
7:56 AM 75.9 °F - 66.9 °F 74% 30.07 in 10.0 mi Calm Calm - N/A   Clear
8:56 AM 80.1 °F 82.9 °F 69.1 °F 69% 30.09 in 10.0 mi Calm Calm - N/A   Clear
9:56 AM 80.1 °F 83.2 °F 70.0 °F 71% 30.10 in 10.0 mi WSW 3.5 mph - N/A   Clear
10:56 AM 81.0 °F 84.4 °F 70.0 °F 69% 30.09 in 10.0 mi WSW 5.8 mph - N/A   Clear
11:56 AM 82.9 °F 87.0 °F 70.0 °F 65% 30.06 in 10.0 mi WNW 8.1 mph - N/A   Clear
12:56 PM 82.9 °F 87.5 °F 71.1 °F 67% 30.04 in 10.0 mi NNW 15.0 mph - N/A   Clear
1:56 PM 84.0 °F 89.0 °F 71.1 °F 65% 30.02 in 10.0 mi NNW 12.7 mph - N/A   Clear
2:56 PM 84.0 °F 89.0 °F 71.1 °F 65% 30.01 in 10.0 mi NNW 12.7 mph - N/A   Clear
3:56 PM 82.0 °F 86.3 °F 71.1 °F 69% 30.02 in 9.0 mi NW 10.4 mph - N/A   Partly Cloudy
4:56 PM 82.9 °F 87.5 °F 71.1 °F 67% 30.04 in 10.0 mi WNW 9.2 mph - N/A   Mostly Cloudy
5:56 PM 80.1 °F 83.6 °F 71.1 °F 74% 30.05 in 10.0 mi WNW 9.2 mph - N/A   Clear
6:56 PM 80.1 °F 83.6 °F 71.1 °F 74% 30.06 in 9.0 mi North 3.5 mph - N/A   Clear
7:56 PM 75.0 °F - 68.0 °F 79% 30.09 in 10.0 mi ENE 4.6 mph - N/A   Clear
8:56 PM 75.9 °F - 66.9 °F 74% 30.11 in 10.0 mi NE 4.6 mph - N/A   Clear
9:56 PM 75.9 °F - 66.0 °F 71% 30.11 in 10.0 mi Calm Calm - N/A   Overcast
10:56 PM 75.9 °F - 70.0 °F 82% 30.11 in 10.0 mi NE 4.6 mph - 0.00 in   Overcast
11:56 PM 73.9 °F - 69.1 °F 85% 30.09 in 10.0 mi NNE 3.5 mph - N/A   Clear